736  
ASUS41 KALY 122010  
RWRALY  
 
NEW YORK STATE HOURLY WEATHER ROUNDUP  
NATIONAL WEATHER SERVICE ALBANY NY  
400 PM EDT FRI APR 12 2024  
 
NOTE: "FAIR" INDICATES FEW OR NO CLOUDS BELOW 12,000 FEET WITH NO  
SIGNIFICANT WEATHER AND/OR NO S TO VISIBILITY
.  
 
NYZ032-033-038>043-046>054-057>066-NYZ062>081-082-084-122100-  
EAST  
 
 
CITY SKY/WX TMP DP RH WIND PRES REMARKS
 
ALBANY RAIN 61 56 83 S24G33 29.22R  
GLENS FALLS LGT RAIN 62 59 90 S13G21 29.15F  
POUGHKEEPSIE PTSUNNY 60 51 72 SW15G28 29.32R  
NEWBURGH CLOUDY 57 52 82 W13G20 29.33R  
MONTGOMERY CLOUDY 57 47 69 SW18G28 29.32R  
WHITE PLAINS PTSUNNY 58 48 69 SE9G21 29.38R  
ISLIP PTSUNNY 61 50 67 SW23G37 29.41R  
NEW YORK CITY PTSUNNY 62 45 53 SW22G36 29.40R  
CENTRAL PARK CLOUDY 62 45 53 MISG 29.42R  

 
 
NYZ005>009-017-018-044>046-055-056-122100-  
CENTRAL  
 
 
CITY SKY/WX TMP DP RH WIND PRES REMARKS
 
FULTON CLOUDY 57 42 57 SW21G31 29.21R  
SYRACUSE CLOUDY 59 43 55 SW13G24 29.21R  
ROME LGT RAIN 57 44 62 W13 29.22R  
ELMIRA CLOUDY 57 40 52 SW21G39 29.25S  
BINGHAMTON CLOUDY 53 39 59 W17G33 29.26R  

 
 
NYZ026>034-041>043-087-122100-  
NORTH  
 
 
CITY SKY/WX TMP DP RH WIND PRES REMARKS
 
WATERTOWN CLOUDY 51 42 71 SW20G30 29.19S  
FORT DRUM CLOUDY 52 42 70 W10G20 29.17R  
OGDENSBURG CLOUDY 55 43 62 SW24G32 29.14S  
MASSENA PTSUNNY 55 48 77 SW12 29.16F  
PLATTSBURGH LGT RAIN 63 59 87 S8 29.10F  

 
 
NYZ001>004-010>016-019>021-085-122100-  
WEST  
 
 
CITY SKY/WX TMP DP RH WIND PRES REMARKS
 
NIAGARA FALLS CLOUDY 49 43 80 SW21G32 29.20S  
BUFFALO CLOUDY 46 41 82 SW23G41 29.22S  
DUNKIRK PTSUNNY 48 43 82 SW24G44 29.29S  
JAMESTOWN LGT RAIN 43 42 97 W20 29.31R  
WELLSVILLE LGT RAIN 46 42 86 W15G25 29.28S  
ROCHESTER CLOUDY 51 41 68 W24G48 29.22R  
PENN YAN CLOUDY 54 40 59 SW20G28 29.23R  

 
 
KEY  
WCI = WIND CHILL INDEX  
VSB = VISIBILITY  
HX = HEAT INDEX  

 
 
 
CLICK HERE TO GO TO PREVIOUS BULLETINS.

The Nexlab NY Page
The Nexlab VT Page
The Nexlab MA Page
The Nexlab CT Page Main Text Page